Weather History for EGNH - September, 2013

Change the Weather History Date:

Tuesday, September 10, 2013

  Actual Average (EGCC) Record (EGCC)
Temperature  
Mean Temperature 56 °F -  
Max Temperature 62 °F 59 °F - (-1)
Min Temperature 51 °F 49 °F - (-1)
Degree Days  
Heating Degree Days 8    
Growing Degree Days 6 (Base 50)    
Moisture  
Dew Point 50 °F    
Average Humidity 72    
Maximum Humidity 83    
Minimum Humidity 58    
Precipitation  
Precipitation 0.00 in - - ()
Sea Level Pressure  
Sea Level Pressure 30.19 in    
Wind  
Wind Speed 13 mph ()    
Max Wind Speed 21 mph    
Max Gust Speed 29 mph    
Visibility 6.2 miles    
Events      
Averages and records for this station are not official NWS values.
T = Trace of Precipitation, MM = Missing Value Source: Averaged Metar Reports

Daily Weather History Graph

Daily Weather History Graph

Search for Another Location

Airport or City:

Trip Planner

Search our weather history database for the weather conditions in past years. The results will help you decide how hot, cold, wet, or windy it might be!

Date:

Astronomy

Sep. 10, 2013 Rise Set
Actual Time 6:36 AM BST 7:40 PM BST
Civil Twilight 6:00 AM BST 8:16 PM BST
Nautical Twilight 5:17 AM BST 8:59 PM BST
Astronomical Twilight 4:29 AM BST 9:46 PM BST
Moon 12:38 PM BST (9/10) 9:38 PM BST (9/10)
Length of Visible Light 14h 15m
Length of Day
13h 03m
Waxing Crescent, 26% of the Moon is Illuminated
Sep 10
Waxing Crescent
Sep 12
First Quarter
Sep 19
Full
Sep 27
Last Quarter
Oct 5
New

Hourly Weather History & Observations

Time (BST) Temp. Dew Point Humidity Pressure Visibility Wind Dir Wind Speed Gust Speed Precip Events Conditions
12:50 AM 51 °F 47 °F 83%  in - North 5.8 mph - -  
6:20 AM 55.4 °F 48.2 °F 77% 30.18 in - NW 5.8 mph - N/A   Clear
6:50 AM 55.4 °F 50.0 °F 82% 30.18 in - NNW 10.4 mph - N/A   Clear
7:20 AM 55.4 °F 50.0 °F 82% 30.18 in 6.2 mi NNW 9.2 mph - N/A   Partly Cloudy
7:50 AM 55.4 °F 50.0 °F 82% 30.18 in 6.2 mi NW 13.8 mph - N/A   Partly Cloudy
8:20 AM 57.2 °F 50.0 °F 77% 30.18 in 6.2 mi NW 12.7 mph - N/A   Scattered Clouds
8:50 AM 55.4 °F 50.0 °F 82% 30.18 in 6.2 mi NNW 13.8 mph - N/A   Scattered Clouds
9:20 AM 57.2 °F 50.0 °F 77% 30.18 in 6.2 mi NW 15.0 mph - N/A   Partly Cloudy
9:50 AM 56 °F 49 °F 71%  in - NNW 18.4 mph - -  
10:20 AM 57.2 °F 50.0 °F 77% 30.18 in 6.2 mi NNW 17.3 mph - N/A   Partly Cloudy
10:50 AM 59.0 °F 50.0 °F 72% 30.18 in 6.2 mi NNW 17.3 mph - N/A   Partly Cloudy
11:20 AM 57.2 °F 48.2 °F 72% 30.18 in 6.2 mi NW 18.4 mph - N/A   Partly Cloudy
11:50 AM 59.0 °F 50.0 °F 72% 30.18 in 6.2 mi NW 17.3 mph 28.8 mph N/A   Partly Cloudy
12:20 PM 59.0 °F 48.2 °F 67% 30.18 in 6.2 mi NW 16.1 mph - N/A   Partly Cloudy
12:50 PM 60 °F 49 °F 58%  in - NNW 18.4 mph - -  
1:20 PM 60.8 °F 50.0 °F 68% 30.18 in 6.2 mi NW 18.4 mph - N/A   Partly Cloudy
2:20 PM 60.8 °F 48.2 °F 63% 30.18 in 6.2 mi NW 20.7 mph - N/A   Partly Cloudy
2:50 PM 62.6 °F 48.2 °F 59% 30.18 in 6.2 mi NW 17.3 mph - N/A   Partly Cloudy
3:20 PM 62.6 °F 48.2 °F 59% 30.18 in 6.2 mi NW 16.1 mph - N/A   Partly Cloudy
4:20 PM 62.6 °F 50.0 °F 63% 30.18 in 6.2 mi NW 19.6 mph - N/A   Partly Cloudy
4:50 PM 62.6 °F 50.0 °F 63% 30.18 in 6.2 mi NW 18.4 mph - N/A   Partly Cloudy
5:20 PM 60.8 °F 50.0 °F 68% 30.18 in 6.2 mi NW 16.1 mph - N/A   Partly Cloudy
5:50 PM 60.8 °F 50.0 °F 68% 30.18 in 6.2 mi NW 17.3 mph - N/A   Partly Cloudy
6:20 PM 60.8 °F 50.0 °F 68% 30.18 in 6.2 mi NW 17.3 mph - N/A   Partly Cloudy
6:50 PM 60 °F 50 °F 61%  in - NNW 15.0 mph - -  
6:50 PM 60.8 °F 50.0 °F 68% 30.18 in 6.2 mi NW 15.0 mph - N/A   Partly Cloudy
7:20 PM 60.8 °F 51.8 °F 72% 30.18 in 6.2 mi NW 15.0 mph - N/A   Partly Cloudy
7:50 PM 60.8 °F 51.8 °F 72% 30.21 in 6.2 mi NW 16.1 mph - N/A   Partly Cloudy
8:20 PM 59.0 °F 51.8 °F 77% 30.21 in 6.2 mi NW 16.1 mph - N/A   Partly Cloudy
8:50 PM 60.8 °F 53.6 °F 77% 30.21 in 6.2 mi NW 16.1 mph - N/A   Partly Cloudy
9:20 PM 59.0 °F 53.6 °F 82% 30.21 in 6.2 mi NW 19.6 mph - N/A   Partly Cloudy
9:50 PM 58 °F 52 °F 75%  in - NNW 19.6 mph - -  
9:50 PM 59.0 °F 51.8 °F 77% 30.21 in 6.2 mi NW 18.4 mph - N/A   Partly Cloudy